Weather History for KMJQ - February, 2013

Change the Weather History Date:

Wednesday, February 20, 2013

  Actual Average Record
Temperature  
Mean Temperature 7 °F -  
Max Temperature 19 °F 30 °F 62 °F (2002)
Min Temperature -5 °F 16 °F -18 °F (2008)
Degree Days  
Heating Degree Days 58    
Moisture  
Dew Point -1 °F    
Average Humidity 71    
Maximum Humidity 79    
Minimum Humidity 53    
Precipitation  
Precipitation 0.00 in - - ()
Sea Level Pressure  
Sea Level Pressure 30.34 in    
Wind  
Wind Speed 7 mph (NE)    
Max Wind Speed 13 mph    
Max Gust Speed -    
Visibility 10 miles    
Events      
Averages and records for this station are not official NWS values.
T = Trace of Precipitation, MM = Missing Value Source: NWS Daily Summary

Daily Weather History Graph

Daily Weather History Graph

Search for Another Location

Airport or City:

Trip Planner

Search our weather history database for the weather conditions in past years. The results will help you decide how hot, cold, wet, or windy it might be!

Date:

Astronomy

Feb. 20, 2013 Rise Set
Actual Time 7:10 AM CST 5:57 PM CST
Civil Twilight 6:41 AM CST 6:26 PM CST
Nautical Twilight 6:08 AM CST 6:59 PM CST
Astronomical Twilight 5:34 AM CST 7:33 PM CST
Moon 1:13 PM CST (2/20) 3:37 AM CST (2/20)
Length of Visible Light 11h 45m
Length of Day
10h 46m
Waxing Gibbous, 76% of the Moon is Illuminated
Feb 20
Waxing Gibbous
Feb 25
Full
Mar 4
Last Quarter
Mar 11
New
Mar 19
First Quarter

Hourly Weather History & Observations

Time (CST) Temp. Windchill Dew Point Humidity Pressure Visibility Wind Dir Wind Speed Gust Speed Precip Events Conditions
12:12 AM -4.0 °F -19.0 °F -9.4 °F 78% 30.36 in 10.0 mi NW 8.1 mph - N/A   Clear
12:33 AM -4.0 °F -21.2 °F -9.4 °F 78% 30.36 in 10.0 mi NNW 10.4 mph - N/A   Clear
12:53 AM -4.0 °F -20.2 °F -9.4 °F 78% 30.36 in 10.0 mi NW 9.2 mph - N/A   Clear
1:12 AM -4.0 °F -20.2 °F -9.4 °F 78% 30.37 in 10.0 mi NW 9.2 mph - N/A   Clear
1:33 AM -4.0 °F -20.2 °F -9.4 °F 78% 30.36 in 10.0 mi NW 9.2 mph - N/A   Clear
1:53 AM -4.0 °F -21.2 °F -9.4 °F 78% 30.36 in 10.0 mi NNW 10.4 mph - N/A   Clear
2:12 AM -4.0 °F -14.6 °F -9.4 °F 78% 30.38 in 10.0 mi WNW 4.6 mph - N/A   Clear
2:33 AM -4.0 °F -20.2 °F -9.4 °F 78% 30.37 in 10.0 mi NNW 9.2 mph - N/A   Clear
3:33 AM -4.0 °F -17.8 °F -11.2 °F 71% 30.36 in 10.0 mi NNW 6.9 mph - N/A   Clear
3:53 AM -4.0 °F -14.6 °F -11.2 °F 71% 30.36 in 10.0 mi North 4.6 mph - N/A   Clear
4:12 AM -4.0 °F -16.3 °F -11.2 °F 71% 30.36 in 10.0 mi NNW 5.8 mph - N/A   Clear
4:33 AM -4.0 °F -14.6 °F -11.2 °F 71% 30.36 in 10.0 mi North 4.6 mph - N/A   Clear
4:52 AM -4.0 °F -12.4 °F -11.2 °F 71% 30.36 in 10.0 mi North 3.5 mph - N/A   Clear
5:12 AM -5.8 °F -14.5 °F -11.2 °F 77% 30.36 in 10.0 mi North 3.5 mph - N/A   Clear
5:33 AM -4.0 °F -19.0 °F -9.4 °F 78% 30.35 in 10.0 mi North 8.1 mph - N/A   Clear
5:52 AM -4.0 °F -17.8 °F -9.4 °F 78% 30.35 in 10.0 mi North 6.9 mph - N/A   Clear
6:13 AM -4.0 °F -16.3 °F -11.2 °F 71% 30.36 in 10.0 mi North 5.8 mph - N/A   Clear
6:33 AM -4.0 °F -19.0 °F -9.4 °F 78% 30.35 in 10.0 mi North 8.1 mph - N/A   Clear
6:52 AM -4.0 °F -12.4 °F -11.2 °F 71% 30.35 in 10.0 mi North 3.5 mph - N/A   Clear
7:13 AM -4.0 °F -12.4 °F -11.2 °F 71% 30.35 in 10.0 mi North 3.5 mph - N/A   Clear
7:32 AM -4.0 °F -16.3 °F -11.2 °F 71% 30.35 in 10.0 mi North 5.8 mph - N/A   Clear
7:53 AM -4.0 °F -12.4 °F -9.4 °F 78% 30.36 in 10.0 mi NNW 3.5 mph - N/A   Clear
8:13 AM -4.0 °F -12.4 °F -9.4 °F 78% 30.36 in 10.0 mi North 3.5 mph - N/A   Clear
8:32 AM -2.2 °F - -9.4 °F 71% 30.37 in 10.0 mi Calm Calm - N/A   Clear
8:53 AM -0.4 °F -8.3 °F -7.6 °F 72% 30.37 in 10.0 mi North 3.5 mph - N/A   Clear
9:13 AM -0.4 °F - -7.6 °F 72% 30.38 in 10.0 mi Calm Calm - N/A   Clear
9:32 AM -0.4 °F - -7.6 °F 72% 30.38 in 10.0 mi Calm Calm - N/A   Clear
9:53 AM 1.4 °F -6.2 °F -5.8 °F 72% 30.39 in 10.0 mi ENE 3.5 mph - N/A   Clear
10:13 AM 3.2 °F -9.1 °F -5.8 °F 66% 30.38 in 10.0 mi NE 6.9 mph - N/A   Clear
10:33 AM 5.0 °F -8.1 °F -4.0 °F 66% 30.38 in 10.0 mi ENE 8.1 mph - N/A   Clear
10:52 AM 5.0 °F -6.9 °F -4.0 °F 66% 30.37 in 10.0 mi East 6.9 mph - N/A   Clear
11:13 AM 6.8 °F -5.9 °F -2.2 °F 67% 30.37 in 10.0 mi East 8.1 mph - N/A   Clear
11:33 AM 8.6 °F -4.7 °F -0.4 °F 67% 30.36 in 10.0 mi ENE 9.2 mph - N/A   Clear
11:52 AM 8.6 °F -2.6 °F -0.4 °F 67% 30.37 in 10.0 mi East 6.9 mph - N/A   Clear
12:13 PM 10.4 °F -1.5 °F 1.4 °F 67% 30.37 in 10.0 mi ENE 8.1 mph - N/A   Clear
12:33 PM 12.2 °F 4.3 °F 1.4 °F 62% 30.37 in 10.0 mi East 4.6 mph - N/A   Clear
12:52 PM 12.2 °F 2.9 °F 1.4 °F 62% 30.37 in 10.0 mi ESE 5.8 mph - N/A   Clear
1:13 PM 14.0 °F 5.1 °F 3.2 °F 62% 30.36 in 10.0 mi ESE 5.8 mph - N/A   Clear
1:33 PM 14.0 °F 3.9 °F 3.2 °F 62% 30.35 in 10.0 mi ESE 6.9 mph - N/A   Clear
1:52 PM 15.8 °F 7.2 °F 3.2 °F 58% 30.34 in 10.0 mi ESE 5.8 mph - N/A   Clear
2:13 PM 17.6 °F 8.2 °F 3.2 °F 53% 30.33 in 10.0 mi East 6.9 mph - N/A   Clear
2:32 PM 17.6 °F 7.3 °F 5.0 °F 58% 30.32 in 10.0 mi East 8.1 mph - N/A   Clear
2:53 PM 17.6 °F 8.2 °F 5.0 °F 58% 30.32 in 10.0 mi ENE 6.9 mph - N/A   Clear
3:12 PM 17.6 °F 6.4 °F 5.0 °F 58% 30.31 in 10.0 mi East 9.2 mph - N/A   Clear
3:32 PM 17.6 °F 8.2 °F 6.8 °F 63% 30.31 in 10.0 mi East 6.9 mph - N/A   Clear
3:53 PM 19.4 °F 10.4 °F 6.8 °F 58% 30.31 in 10.0 mi East 6.9 mph - N/A   Clear
4:12 PM 17.6 °F 6.4 °F 6.8 °F 63% 30.31 in 10.0 mi East 9.2 mph - N/A   Clear
4:32 PM 17.6 °F 8.2 °F 6.8 °F 63% 30.32 in 10.0 mi ENE 6.9 mph - N/A   Clear
4:53 PM 17.6 °F 8.2 °F 8.6 °F 68% 30.32 in 10.0 mi East 6.9 mph - N/A   Clear
5:12 PM 17.6 °F 8.2 °F 8.6 °F 68% 30.32 in 10.0 mi East 6.9 mph - N/A   Clear
5:32 PM 17.6 °F 7.3 °F 8.6 °F 68% 30.31 in 10.0 mi East 8.1 mph - N/A   Clear
5:53 PM 17.6 °F 7.3 °F 8.6 °F 68% 30.30 in 10.0 mi East 8.1 mph - N/A   Clear
6:12 PM 17.6 °F 8.2 °F 8.6 °F 68% 30.30 in 10.0 mi ENE 6.9 mph - N/A   Clear
6:32 PM 15.8 °F 4.2 °F 8.6 °F 73% 30.29 in 10.0 mi ENE 9.2 mph - N/A   Clear
6:53 PM 15.8 °F 3.4 °F 8.6 °F 73% 30.29 in 10.0 mi ENE 10.4 mph - N/A   Clear
7:13 PM 14.0 °F 1.2 °F 8.6 °F 79% 30.28 in 10.0 mi ENE 10.4 mph - N/A   Clear
7:32 PM 14.0 °F -0.2 °F 8.6 °F 79% 30.28 in 10.0 mi ENE 12.7 mph - N/A   Clear
7:53 PM 14.0 °F 0.5 °F 8.6 °F 79% 30.28 in 10.0 mi ENE 11.5 mph - N/A   Clear
8:13 PM 14.0 °F 1.2 °F 8.6 °F 79% 30.29 in 10.0 mi ENE 10.4 mph - N/A   Clear
8:32 PM 12.2 °F -0.2 °F 6.8 °F 79% 30.29 in 10.0 mi ENE 9.2 mph - N/A   Clear
8:53 PM 12.2 °F 0.7 °F 6.8 °F 79% 30.29 in 10.0 mi ENE 8.1 mph - N/A   Clear
9:12 PM 12.2 °F 0.7 °F 5.0 °F 73% 30.29 in 10.0 mi ENE 8.1 mph - N/A   Clear
9:33 PM 12.2 °F -0.2 °F 5.0 °F 73% 30.29 in 10.0 mi ENE 9.2 mph - N/A   Scattered Clouds
9:53 PM 12.2 °F 1.7 °F 5.0 °F 73% 30.30 in 10.0 mi East 6.9 mph - N/A   Scattered Clouds
10:12 PM 12.2 °F -0.2 °F 5.0 °F 73% 30.29 in 10.0 mi East 9.2 mph - N/A   Scattered Clouds
10:33 PM 12.2 °F -0.2 °F 5.0 °F 73% 30.29 in 10.0 mi East 9.2 mph - N/A   Clear
10:52 PM 12.2 °F -0.2 °F 5.0 °F 73% 30.29 in 10.0 mi East 9.2 mph - N/A   Clear
11:13 PM 12.2 °F -1.0 °F 5.0 °F 73% 30.28 in 10.0 mi East 10.4 mph - N/A   Clear
11:33 PM 12.2 °F 0.7 °F 5.0 °F 73% 30.28 in 10.0 mi East 8.1 mph - N/A   Clear
11:52 PM 10.4 °F -0.4 °F 5.0 °F 79% 30.28 in 10.0 mi East 6.9 mph - N/A   Scattered Clouds